Theta_e
317 317 317 316 315 315 315 314 313 311 310 311 308 308 305 303 304 313 315 316 313 303 296 304 305 299 300 304 304 305 304 304 303 305 306 306 305 302 302 301 301 301 302 301 300 295 294 292 292 292 295 295 299 299 301 303 304 307 303 303 304 319 300 295 295 294 296 299 299 300 301 301 300 299 304 303 301 303 302 295 296 298 299 298 297 296 297
317 316 316 316 315 315 315 314 313 311 309 309 307 304 302 303 303 307 317 316 312 301 297 297 299 302 305 306 304 307 306 305 305 305 306 306 304 303 300 300 302 301 303 301 302 303 293 297 297 298 298 299 299 298 299 303 304 305 302 303 306 300 296 294 290 288 291 291 294 296 297 298 294 295 296 304 304 303 301 301 300 300 298 298 295 291 295
317 316 316 315 314 314 315 314 313 311 310 310 305 304 303 302 306 306 311 318 310 303 299 300 298 302 301 302 302 304 305 308 307 305 305 306 305 301 300 303 302 301 302 303 304 305 299 298 304 301 302 301 305 306 301 302 302 306 313 321 309 301 296 295 289 287 286 284 285 288 291 294 294 296 296 305 305 304 303 301 299 294 298 299 296 295 300
317 316 315 314 314 314 315 314 313 311 311 309 309 306 306 303 299 304 303 305 306 306 308 305 302 300 301 300 302 303 302 306 308 305 305 305 305 300 302 304 303 302 300 302 302 303 305 302 303 301 302 303 305 308 306 301 299 314 331 319 308 297 297 298 294 292 289 288 290 294 304 295 295 296 295 300 306 305 303 299 296 296 295 299 298 299 301
317 316 315 315 314 315 314 314 313 312 310 309 308 306 305 305 299 300 298 303 301 302 303 304 303 301 305 298 303 302 302 304 305 307 302 305 304 303 304 304 302 302 301 299 301 302 302 303 303 302 302 304 304 307 306 306 318 330 326 315 301 295 296 297 297 295 296 294 296 296 302 296 294 295 295 299 304 304 303 301 297 300 300 294 301 302 304
318 318 317 317 316 316 315 313 312 311 310 309 309 307 307 299 303 303 305 298 293 297 298 303 303 306 306 301 305 302 301 302 300 305 306 306 304 302 304 304 304 303 303 303 298 300 300 300 300 303 304 303 306 306 307 306 317 319 312 312 303 295 294 294 297 297 297 294 294 295 295 296 296 295 294 296 303 305 303 301 300 303 299 298 300 303 303
318 318 318 318 317 317 317 315 312 310 309 307 307 304 305 304 304 304 308 299 300 299 303 307 306 304 306 304 305 302 301 300 302 302 303 304 302 303 299 301 303 303 303 301 299 300 295 297 301 302 301 302 302 302 303 305 307 306 302 302 299 296 292 294 296 296 295 294 294 295 295 296 299 300 299 298 299 301 302 303 303 304 303 303 304 303 305
318 318 318 318 318 318 317 315 313 310 309 308 307 306 303 301 301 300 306 304 303 303 304 305 303 299 307 301 303 303 301 301 303 305 302 298 301 303 299 299 302 303 302 302 298 302 303 302 300 303 302 301 303 302 302 304 305 305 304 304 301 296 295 307 293 294 295 294 296 295 294 298 301 302 302 302 300 295 297 299 305 308 303 304 303 305 304
317 318 318 318 318 318 318 317 313 311 309 307 305 306 306 306 307 306 301 297 301 308 303 302 301 297 301 299 303 305 303 302 304 303 305 302 301 302 300 301 301 303 303 302 303 305 305 303 304 305 304 299 304 303 301 304 303 302 302 304 302 298 295 293 290 294 291 294 293 295 296 299 300 301 303 303 301 299 299 305 305 304 301 301 302 301 303
317 318 318 318 318 318 318 316 314 312 311 305 302 302 308 307 308 309 302 296 305 299 301 301 301 298 302 305 304 304 303 305 304 300 304 306 305 304 304 304 302 301 302 302 303 305 306 306 307 307 306 306 306 306 307 306 306 301 302 304 300 295 292 295 290 290 289 290 294 295 294 294 296 300 302 304 304 301 301 308 314 313 310 303 300 301 305
315 317 318 318 318 318 318 317 316 314 314 308 306 303 307 306 305 305 301 296 295 298 297 296 299 304 303 305 303 305 304 304 304 299 299 304 306 306 306 304 302 299 303 305 308 308 309 309 309 309 306 305 305 305 305 306 306 305 303 302 301 298 295 294 293 291 289 290 294 295 291 289 292 300 305 306 307 308 309 308 310 313 312 309 306 309 312
314 316 317 318 318 318 318 318 317 315 314 313 311 308 310 310 305 302 296 295 295 297 296 295 299 302 302 303 304 303 303 303 303 305 301 302 304 305 306 305 303 299 306 310 310 310 309 309 307 306 306 305 305 305 304 303 304 309 305 304 302 303 298 296 291 290 292 293 292 292 285 288 300 303 305 306 307 312 311 310 312 313 315 315 315 316 316
314 314 316 317 318 318 318 318 316 315 314 315 313 307 310 312 307 301 298 296 294 296 295 296 302 302 303 303 302 303 305 305 305 306 305 303 303 304 306 306 305 305 311 309 308 306 303 302 299 301 302 303 302 302 304 303 303 305 305 304 303 299 297 297 297 293 293 291 287 284 286 295 301 303 306 312 307 308 308 305 310 314 315 316 315 317 320
313 314 315 316 318 318 318 317 317 318 314 313 312 311 311 311 305 301 297 295 298 295 297 297 298 301 302 302 302 303 303 303 304 304 303 305 304 303 306 309 309 311 310 309 305 303 298 296 293 295 297 298 295 298 302 301 302 303 303 303 305 302 298 297 296 298 292 291 287 290 296 299 305 305 309 309 307 308 304 302 308 313 315 317 317 319 321
313 313 314 315 317 318 319 318 318 318 316 311 315 313 312 311 309 304 303 299 296 298 298 294 297 300 302 302 303 300 299 301 301 301 305 305 304 307 307 309 311 310 309 306 301 300 297 296 294 291 291 291 291 293 299 300 301 304 306 303 304 303 301 297 297 294 293 291 290 290 291 290 294 301 308 311 312 312 308 307 304 312 316 320 319 320 321
315 314 314 316 317 318 318 318 317 317 316 312 314 312 311 312 310 307 302 296 295 293 294 299 304 303 300 300 303 301 298 297 299 299 299 301 304 306 308 309 310 310 309 305 302 299 299 298 292 290 289 291 294 295 294 298 299 302 304 306 306 304 302 299 297 294 295 291 287 288 288 291 297 304 307 310 311 311 307 303 298 311 315 318 320 322 322
314 315 316 316 318 318 318 318 316 315 316 313 313 311 308 310 307 305 301 299 299 294 300 305 306 304 299 299 300 298 300 298 298 296 295 298 301 304 306 309 310 309 307 302 300 297 294 293 293 291 292 296 295 293 297 295 296 297 300 304 303 302 302 300 296 297 296 290 290 291 292 295 305 305 307 311 314 309 303 295 295 306 315 318 321 323 323
314 315 316 317 317 318 318 318 317 316 316 311 314 311 310 311 309 309 305 297 296 297 298 307 304 298 298 298 297 302 304 300 300 299 297 299 301 300 303 305 304 308 310 305 302 294 294 292 294 292 291 296 300 299 291 296 296 295 297 299 298 300 300 298 296 295 299 299 292 293 296 305 309 310 311 311 311 307 298 291 299 310 315 319 321 322 324
314 315 316 317 318 318 318 319 319 318 316 309 313 312 310 310 310 309 302 301 298 296 300 306 309 305 306 308 303 305 305 303 302 297 296 295 299 302 303 304 308 300 304 301 296 295 294 293 296 293 293 294 299 294 295 297 294 298 301 299 298 297 297 298 295 295 295 294 296 293 293 302 307 308 311 312 307 299 294 302 309 313 317 319 322 323 325
314 315 316 317 318 318 318 318 319 319 318 312 313 310 311 311 312 310 305 298 296 297 302 305 307 304 307 304 299 298 300 301 300 297 295 294 299 303 299 298 301 302 299 300 296 298 296 295 296 299 295 292 296 303 298 297 301 301 301 300 297 296 297 294 294 295 295 293 293 292 290 303 310 313 310 312 305 300 306 314 317 318 318 320 322 324 326
315 316 317 317 317 318 318 318 318 318 318 314 314 310 309 313 313 313 311 302 298 298 299 305 308 307 307 306 306 306 303 299 299 297 298 298 302 298 290 293 296 298 296 300 296 297 297 294 294 298 299 299 299 300 295 296 299 303 305 301 301 301 300 295 295 297 293 293 292 292 297 303 310 311 304 307 309 312 316 319 318 321 321 321 320 323 324
316 316 317 317 317 318 318 318 318 318 318 316 314 311 308 312 313 314 314 306 301 299 299 304 308 308 310 311 311 310 309 308 308 307 302 300 299 299 298 300 299 299 300 302 297 297 299 299 298 297 295 295 299 297 298 295 292 300 305 304 298 305 303 300 300 301 298 296 296 302 307 309 312 312 309 316 318 319 321 320 320 320 321 321 322 323 325
316 316 317 317 317 318 318 318 318 318 318 316 315 312 309 311 311 315 309 303 303 305 309 308 309 309 312 312 314 314 313 313 312 309 307 302 298 298 299 299 299 303 305 304 299 297 299 298 296 297 296 296 298 296 296 297 295 298 298 304 305 309 308 306 306 303 306 307 308 311 313 315 319 320 320 321 322 323 321 322 320 321 320 322 322 324 326
315 316 316 317 317 317 317 318 318 317 317 317 315 313 311 312 313 312 310 308 304 301 303 301 300 298 302 304 308 311 314 313 313 311 312 309 298 297 300 303 305 304 301 302 304 303 297 298 299 299 296 296 299 296 293 292 295 300 298 298 302 306 309 306 305 305 302 300 306 310 312 314 316 319 323 323 323 324 324 323 321 322 324 325 326 325 325
315 316 316 316 317 317 317 317 317 317 316 315 315 315 315 312 313 311 306 302 302 300 297 298 299 305 308 310 311 310 310 312 317 314 311 310 307 302 300 304 306 302 301 302 304 299 300 298 297 297 295 299 301 295 299 297 295 299 294 295 298 300 312 304 305 304 303 303 308 310 312 313 315 314 321 322 323 324 326 325 325 324 326 327 328 327 327
315 315 315 316 316 316 316 316 316 316 315 315 315 314 311 311 313 313 310 309 305 304 298 297 301 309 310 308 307 308 311 312 311 310 310 311 311 310 308 308 308 308 305 308 302 302 297 298 297 296 295 297 303 297 295 298 299 300 298 297 301 304 311 302 305 303 303 306 308 308 311 311 313 317 318 318 322 323 325 326 326 327 327 327 327 329 327
315 315 315 315 315 315 316 316 316 316 315 315 315 315 314 314 316 313 310 309 303 296 300 297 302 305 307 305 310 311 312 311 310 309 309 310 310 311 310 307 305 305 304 303 302 301 298 297 296 295 297 297 302 298 300 300 299 298 296 298 304 303 298 303 304 301 300 303 306 309 305 303 310 314 317 322 324 325 325 326 327 326 325 325 326 327 328
314 314 314 315 315 315 315 316 316 315 314 313 314 314 315 313 314 315 315 313 305 296 297 299 300 304 309 305 310 309 310 312 309 308 307 308 309 309 308 307 306 304 302 300 298 299 296 295 295 297 300 301 300 298 301 300 300 298 298 299 304 302 299 303 301 300 299 304 307 308 309 307 308 313 318 322 324 326 325 325 326 326 325 325 326 327 327
314 314 314 314 314 314 315 315 315 315 313 313 313 312 310 311 313 314 315 316 313 306 304 304 307 303 295 299 308 307 309 309 308 307 307 306 307 307 306 306 305 305 303 300 297 296 295 297 299 299 299 300 300 296 298 295 294 293 297 300 304 305 306 309 309 306 306 308 309 311 310 310 313 315 317 321 324 325 325 325 325 326 326 327 326 325 326
313 313 314 314 314 314 314 315 315 314 313 311 310 305 300 304 306 310 312 314 313 310 302 300 295 298 304 305 304 306 307 308 307 307 306 306 305 305 305 304 304 308 304 301 299 298 297 297 300 301 304 306 301 298 297 292 293 295 300 301 302 305 308 311 310 308 306 309 310 311 312 312 313 315 318 321 326 327 325 326 326 327 327 328 326 325 325
313 313 313 313 313 314 314 314 314 313 312 311 307 301 296 295 303 312 313 312 313 310 305 303 298 303 300 303 304 304 305 307 306 305 305 306 306 306 306 306 304 307 301 299 299 298 299 297 298 299 302 304 305 297 294 294 292 293 299 303 306 306 305 305 306 310 310 310 311 313 314 314 316 319 321 322 322 327 329 330 335 338 331 331 328 326 326
313 313 313 313 313 313 313 314 314 313 310 308 305 304 302 303 307 312 314 315 314 308 303 298 297 293 292 298 303 308 307 307 307 307 305 309 304 306 303 305 302 305 304 299 300 299 298 298 299 300 300 311 308 297 296 295 295 295 300 304 305 305 305 305 306 308 309 311 314 313 312 314 316 318 318 321 322 324 326 329 333 334 337 331 329 329 328
313 313 313 313 313 313 313 314 314 312 309 310 314 314 314 314 315 315 315 313 311 306 306 299 292 294 291 294 302 303 306 304 301 302 301 306 304 304 302 304 304 302 321 305 297 297 299 299 299 298 301 306 301 301 296 295 297 299 302 306 306 306 305 307 309 309 308 309 315 311 310 313 314 317 317 320 322 324 330 331 329 328 328 328 327 326 327
313 313 313 312 312 313 313 313 314 314 313 308 300 299 304 313 313 315 316 313 308 307 303 298 294 293 292 300 294 299 305 299 298 299 297 303 307 304 300 302 303 301 302 301 299 301 301 304 298 298 301 300 301 297 294 296 299 301 303 304 305 305 305 305 305 306 308 309 311 316 316 318 319 320 322 325 327 330 331 329 329 328 325 326 326 325 326
313 313 313 313 313 313 312 312 306 308 305 305 302 304 305 315 315 314 314 309 300 298 298 298 298 292 291 292 290 294 303 300 297 299 297 300 307 302 301 299 300 298 299 304 299 297 297 301 301 298 296 297 297 293 294 296 299 301 302 302 304 304 303 304 305 306 307 308 309 310 316 321 321 321 323 325 328 328 329 328 328 327 325 324 323 324 326
313 313 312 313 312 311 307 309 307 305 302 302 303 313 317 317 314 306 306 308 304 298 297 297 298 294 294 289 289 294 304 296 299 300 299 302 300 303 303 297 294 297 304 301 294 295 297 304 301 294 297 295 295 297 298 301 301 302 303 303 305 304 304 305 306 307 307 308 308 310 313 318 319 319 320 322 326 326 327 328 327 325 323 322 323 323 324
312 311 311 312 307 306 302 303 309 307 304 308 312 316 315 315 312 312 308 305 307 309 300 297 294 294 296 293 294 296 300 291 296 295 296 296 296 303 300 297 294 302 299 296 294 295 299 309 299 294 293 293 295 299 303 303 303 303 304 305 306 306 306 305 307 306 306 307 309 309 308 311 315 316 319 321 323 325 326 326 327 327 325 324 323 324 325
311 310 306 305 304 301 301 304 307 311 316 315 315 310 306 307 299 302 303 299 302 304 299 301 295 297 297 293 291 297 298 291 294 292 293 298 297 295 301 298 298 303 291 292 295 302 301 300 296 294 294 298 301 302 303 304 305 305 305 306 306 306 306 306 306 307 305 304 304 306 308 310 313 314 318 320 321 324 327 328 327 328 326 327 325 326 325
307 306 306 305 302 300 301 305 314 316 312 312 310 301 296 297 293 293 297 300 301 296 301 297 294 296 294 291 293 299 297 293 290 289 289 296 296 292 301 295 303 299 289 291 295 304 295 293 294 294 294 297 299 302 304 304 304 305 305 306 307 307 307 307 307 306 305 305 306 307 309 308 309 310 316 320 322 324 324 324 324 326 327 325 325 326 325
302 300 301 302 302 303 310 312 316 312 309 302 299 293 291 294 292 291 299 291 289 296 297 291 297 294 295 293 292 292 301 294 289 289 289 294 301 292 299 298 300 297 291 291 294 304 295 290 292 293 293 298 299 301 303 308 311 313 314 315 315 314 312 310 309 309 308 308 309 309 309 309 311 311 314 318 321 322 323 323 324 325 325 325 326 326 326
303 304 304 303 305 307 306 306 303 301 299 294 292 293 288 283 288 293 295 290 288 288 295 292 294 291 296 296 294 292 299 303 298 297 294 291 301 301 294 292 301 295 292 290 299 301 298 294 291 292 295 300 302 307 310 312 313 316 317 317 317 317 317 317 315 311 309 309 309 310 311 311 311 312 314 318 321 323 324 325 324 325 325 326 330 327 324
308 308 309 311 310 307 302 300 299 295 295 296 289 288 291 292 293 291 292 285 286 290 291 295 293 292 293 297 295 295 295 300 299 301 296 291 299 295 293 296 299 292 289 296 302 298 295 290 290 291 298 303 307 311 312 312 314 314 315 317 317 317 317 317 316 314 310 310 310 311 311 312 313 314 315 317 320 323 324 327 325 326 328 327 327 324 325
313 313 312 307 304 301 299 291 295 296 288 290 284 278 284 284 285 284 286 291 295 292 292 301 298 301 302 303 298 298 297 305 298 297 294 291 296 296 293 290 291 286 291 301 298 294 290 290 291 295 302 307 310 310 311 312 313 313 315 317 317 317 318 316 314 312 310 310 311 311 312 315 317 319 320 321 323 325 326 329 327 327 326 326 325 325 327
311 310 305 303 299 299 297 285 299 294 289 288 284 280 285 284 284 286 286 286 289 292 295 293 294 295 292 299 296 295 297 299 301 296 294 296 293 290 290 287 287 291 298 294 291 288 290 294 296 299 305 309 309 308 309 311 312 313 314 316 317 317 317 318 313 310 310 311 313 315 317 317 320 323 326 326 328 327 325 327 329 329 327 326 325 326 325
301 300 297 292 291 293 289 281 289 290 284 286 288 285 285 281 281 283 286 293 295 294 298 298 297 295 296 298 298 298 296 295 300 293 290 295 290 290 288 287 292 294 290 286 287 287 289 290 296 303 304 303 305 308 310 310 312 313 313 315 316 317 316 316 317 316 315 313 313 316 317 319 321 322 323 325 325 328 327 327 328 327 327 327 325 325 326
299 293 289 286 286 284 281 280 282 285 286 288 287 287 285 287 286 287 293 297 295 296 296 298 298 298 295 298 294 290 293 295 290 291 296 294 289 285 291 296 293 289 287 287 285 283 287 290 296 301 305 307 308 310 310 311 313 314 314 313 315 316 315 316 315 316 317 317 317 318 319 319 319 320 321 321 322 322 322 324 326 327 326 325 325 327 328
300 303 294 288 285 285 288 284 284 288 288 287 289 291 290 291 292 292 294 298 296 298 297 298 298 299 294 294 295 296 298 298 292 295 293 288 288 291 296 290 283 284 284 283 285 286 287 292 297 303 305 308 309 310 311 313 314 313 313 315 315 314 315 315 316 315 316 318 320 320 319 319 320 320 321 321 321 321 324 324 325 326 325 323 324 326 328
290 298 297 288 286 288 286 288 289 289 291 292 289 291 293 294 292 292 296 300 299 298 298 298 296 294 293 299 298 293 293 296 293 291 296 293 295 291 285 286 285 288 288 286 286 287 289 295 299 302 304 307 308 309 310 312 314 314 314 314 314 314 314 315 315 316 317 316 318 319 319 319 319 319 319 320 320 321 321 324 325 325 325 324 325 326 328
301 295 290 288 291 288 287 290 289 288 289 289 292 292 291 291 292 294 296 297 297 298 298 296 296 295 291 298 295 294 293 296 289 286 295 293 289 286 286 284 285 285 291 293 291 292 295 299 302 304 304 305 306 308 309 310 312 314 314 314 314 314 314 315 316 317 317 316 316 317 320 321 317 316 316 316 318 319 321 322 322 322 324 326 325 325 327
297 293 298 293 290 289 289 289 289 287 288 289 289 289 290 290 291 293 296 299 299 300 299 300 300 293 292 294 286 288 288 290 289 292 291 289 290 291 289 285 287 287 289 294 295 295 297 300 302 302 304 305 308 309 308 309 313 314 314 314 315 315 316 316 316 317 317 314 315 318 320 320 318 317 316 317 318 318 318 319 316 317 320 323 325 325 325
299 297 294 297 293 288 287 285 283 282 283 284 285 287 289 290 291 293 298 300 298 296 295 293 290 290 288 291 289 285 289 295 293 291 291 289 293 291 288 287 287 290 293 297 299 300 300 300 302 303 304 305 306 308 310 311 311 312 313 314 314 315 315 316 316 317 318 317 317 321 316 316 317 317 319 320 319 318 316 320 321 318 319 320 322 325 327
290 289 290 292 295 295 293 293 290 291 291 292 291 293 293 292 294 296 302 300 296 294 292 292 290 286 284 285 288 291 291 290 289 292 289 290 292 287 287 289 291 293 295 297 298 300 305 304 304 307 306 307 311 310 310 311 311 312 313 313 313 314 315 315 315 316 317 317 316 316 316 317 319 319 322 319 318 316 314 314 318 321 320 321 321 322 324
Wind_Speed
15 15 16 16 17 18 18 19 19 20 22 9 8 5 4 6 1 3 1 3 1 3 1 1 2 2 4 5 3 3 2 3 4 3 2 4 1 1 1 0 1 1 0 0 1 2 0 4 5 3 4 4 9 9 9 8 6 6 0 3 2 5 1 1 6 7 8 10 9 1 3 4 0 1 2 4 5 7 8 5 4 4 1 0 1 1 5
15 15 16 15 15 17 18 18 19 18 16 6 7 3 2 0 1 3 2 0 2 3 3 4 6 3 5 1 4 5 2 1 5 2 4 2 4 2 1 3 2 1 0 1 2 0 2 1 0 2 0 1 5 6 5 8 4 8 8 7 5 4 3 4 2 4 8 5 5 1 2 2 1 1 2 1 2 3 2 5 1 0 5 5 6 3 4
14 14 15 15 15 16 17 17 18 18 15 8 2 2 1 1 2 3 5 2 1 1 3 0 2 3 5 5 9 8 2 2 3 3 4 2 1 1 2 1 4 1 0 2 1 4 3 1 1 1 1 2 3 4 4 7 7 5 0 4 8 3 3 6 3 3 1 1 2 2 3 2 3 1 1 1 6 7 4 2 1 2 1 3 1 4 9
12 13 14 14 14 15 16 17 17 17 15 9 0 0 1 2 2 3 2 5 2 1 0 1 0 2 3 4 3 2 5 3 6 5 2 1 3 1 2 2 2 2 3 4 6 6 4 5 1 3 4 3 3 3 7 5 5 5 9 8 8 2 1 5 7 8 7 6 3 4 1 2 1 2 3 2 2 1 3 4 5 6 3 5 6 5 5
12 12 13 13 13 14 16 17 17 18 16 9 1 0 1 0 2 1 2 5 3 0 2 2 2 2 1 1 2 4 4 3 5 3 2 4 4 2 5 3 4 3 3 1 4 3 3 4 2 5 2 3 3 8 4 4 6 12 7 11 6 2 1 6 5 7 9 6 4 1 1 1 3 1 2 1 2 5 5 5 4 4 6 6 4 4 1
12 13 13 13 13 14 16 16 17 18 17 6 2 1 1 1 0 1 1 1 1 2 2 5 5 4 0 1 1 4 6 7 5 6 1 4 4 3 4 8 5 2 1 1 3 5 1 3 4 5 0 4 8 9 5 2 9 4 4 9 5 4 3 2 5 8 8 4 6 1 2 1 1 2 2 2 1 2 5 5 4 8 3 9 4 3 4
14 15 15 13 13 14 15 15 16 18 19 3 1 1 3 2 0 0 1 1 1 1 2 3 2 5 2 0 5 5 7 6 2 1 6 6 5 5 2 4 5 5 5 3 2 3 3 4 2 2 5 4 4 6 6 1 8 6 2 0 0 3 1 3 3 5 3 4 5 2 2 1 2 3 3 0 1 3 1 0 1 4 3 2 1 4 10
15 16 14 13 13 14 13 14 15 17 20 3 2 3 1 2 2 1 4 1 0 2 2 1 2 3 5 2 3 3 4 7 9 4 2 3 4 4 3 5 6 5 4 3 3 0 0 1 1 2 2 7 1 2 3 4 3 4 1 1 2 2 2 3 1 1 0 2 6 0 2 5 3 3 4 5 2 3 1 2 0 2 5 7 5 1 10
15 15 14 12 12 12 13 13 14 16 15 4 4 1 2 1 0 0 1 1 2 0 2 2 1 1 4 4 2 3 3 3 3 4 1 2 2 4 4 5 4 3 4 5 1 1 2 4 8 8 2 2 2 1 5 3 6 4 2 1 2 1 3 2 2 1 1 0 2 2 0 4 5 5 7 9 8 5 4 4 2 0 4 6 4 3 8
17 17 16 14 11 11 12 11 13 13 13 3 1 2 2 1 1 0 1 0 2 1 2 1 2 1 0 1 2 1 4 4 6 1 3 0 1 3 4 6 0 3 6 5 5 7 6 9 10 7 7 6 8 6 7 3 2 2 1 1 1 1 2 1 1 2 1 3 2 0 1 3 4 5 3 2 4 3 2 2 2 0 2 2 4 9 3
17 17 15 14 11 10 9 10 10 11 7 5 3 2 3 4 2 4 1 0 2 2 0 2 3 1 0 3 2 2 2 4 5 1 3 3 3 4 3 5 2 1 1 3 5 4 10 10 11 6 6 6 6 5 7 6 5 5 2 0 1 2 2 1 1 3 2 3 4 1 3 1 2 3 2 2 2 4 6 2 3 3 1 4 4 10 10
18 17 15 13 12 10 9 8 8 8 4 3 1 0 1 1 1 1 1 1 1 2 1 0 1 1 1 2 2 1 3 6 5 1 3 3 5 4 3 2 3 2 3 6 8 10 10 3 3 4 4 3 5 6 7 7 7 5 5 2 1 0 1 0 1 2 3 3 2 1 0 3 4 4 2 2 5 6 8 4 1 3 3 4 7 8 8
17 17 16 14 12 11 8 7 6 6 2 3 2 1 2 3 0 1 1 1 1 0 2 0 1 2 3 3 3 2 5 6 4 6 4 3 3 3 1 1 1 4 7 13 11 6 2 2 4 1 5 8 6 7 8 6 7 4 4 4 3 2 3 2 1 2 2 2 3 1 2 3 4 7 3 1 4 3 3 4 3 3 3 3 6 10 10
17 16 16 15 13 11 9 6 5 5 1 1 3 2 2 2 1 2 1 1 2 2 3 2 2 1 3 3 2 5 4 5 7 2 1 1 2 3 3 1 3 7 9 5 3 1 2 3 2 5 5 7 4 2 2 6 7 4 5 4 5 4 4 3 0 0 2 1 3 4 3 3 2 1 0 1 1 2 3 1 2 4 4 3 6 10 8
16 15 15 15 14 12 9 7 4 4 1 3 2 3 3 2 2 1 0 1 1 2 1 1 1 2 1 2 2 5 3 4 6 4 2 2 2 1 3 6 7 8 6 1 2 4 1 2 1 2 4 3 1 2 3 1 4 1 2 5 5 7 5 3 2 2 4 4 1 1 1 2 3 5 3 2 2 3 3 3 3 6 6 2 4 7 8
15 14 14 14 14 12 10 7 5 4 2 3 1 2 3 3 2 1 1 1 2 2 2 5 2 1 1 2 2 1 1 3 3 4 7 3 2 6 5 5 10 5 2 3 1 2 1 1 2 3 2 1 2 1 2 3 4 4 5 3 6 4 4 6 5 2 2 2 3 2 3 4 6 5 4 2 3 5 5 2 3 4 5 5 3 6 6
15 13 14 15 13 11 9 8 5 4 2 4 1 1 3 0 1 1 1 1 1 4 1 1 1 1 1 3 3 2 1 2 2 2 4 5 4 5 9 9 6 1 4 3 5 2 2 3 2 1 3 1 0 2 2 1 2 5 7 5 5 4 2 3 2 1 2 6 3 3 4 2 1 7 2 1 3 6 4 2 2 4 7 6 4 6 6
13 12 14 14 13 11 9 6 5 4 3 5 2 1 3 1 1 1 0 1 1 3 2 1 1 1 0 1 1 3 0 2 3 1 1 4 3 4 7 6 8 5 2 2 1 4 1 1 0 1 2 3 0 1 2 1 1 2 2 1 2 1 1 1 8 5 3 5 1 2 4 4 4 4 3 3 3 3 1 3 3 3 5 4 3 6 6
12 12 14 14 13 12 9 8 5 4 3 6 2 1 3 2 1 1 1 0 1 2 1 3 1 1 1 1 1 0 1 1 0 1 4 4 1 5 8 5 1 4 6 1 3 2 1 0 0 1 1 2 1 1 1 1 3 1 0 2 0 1 1 2 3 3 5 5 4 6 4 6 4 3 4 4 3 1 2 2 3 2 4 4 1 4 5
12 13 14 13 11 11 9 7 6 3 2 7 3 2 4 2 2 3 1 1 1 2 4 2 0 4 0 1 1 1 3 3 0 1 1 3 3 11 5 0 2 2 4 2 1 0 1 1 1 0 1 2 2 0 1 3 0 1 0 1 1 3 2 3 3 2 3 2 2 1 2 2 4 1 2 0 1 4 4 3 1 2 3 2 3 3 4
14 14 13 11 10 9 8 7 6 5 2 8 4 1 1 0 2 0 0 3 1 2 5 2 1 3 1 2 3 3 2 3 1 1 2 2 2 2 0 2 2 2 1 1 1 1 1 0 0 0 1 1 2 1 1 1 6 3 1 2 3 2 0 1 2 4 4 3 3 3 4 1 0 2 3 3 3 5 7 7 3 3 3 3 3 4 5
13 12 11 9 9 9 8 6 5 4 2 6 4 2 1 2 1 1 1 1 1 4 4 2 1 3 6 6 6 6 8 8 8 4 3 4 1 4 2 2 2 1 2 1 1 1 1 0 0 1 0 1 1 1 1 0 2 2 1 1 1 2 1 4 1 2 1 2 2 3 3 4 4 2 3 2 1 4 6 5 5 4 5 4 2 4 2
13 12 11 9 8 8 6 5 4 3 2 6 4 1 2 2 3 1 1 0 2 3 3 4 2 3 2 6 8 8 7 7 6 4 5 5 3 2 5 3 3 3 1 1 2 2 1 1 2 1 0 3 2 1 1 2 2 2 2 2 1 1 1 0 1 4 2 3 6 5 3 3 4 1 1 3 3 1 3 5 3 4 4 4 2 2 4
14 12 9 7 6 6 7 6 4 2 2 5 5 2 2 1 3 3 1 1 1 3 5 1 1 2 0 2 2 1 2 2 6 7 5 7 4 4 3 4 2 2 2 2 3 1 2 1 2 1 1 3 2 1 1 2 2 1 1 3 2 2 1 1 1 2 2 2 3 4 3 3 3 3 2 3 3 2 2 0 1 3 1 0 2 2 3
13 10 7 6 6 6 6 6 5 4 2 2 3 0 0 1 1 0 1 1 1 1 2 4 3 6 3 3 4 5 4 4 2 3 6 8 8 6 6 4 4 1 4 4 0 3 2 0 2 0 1 4 3 4 1 1 3 0 3 4 4 2 1 3 0 1 1 1 2 4 5 5 5 4 0 2 1 3 2 0 1 0 0 1 1 1 1
11 10 6 5 6 6 6 5 5 4 4 2 2 2 1 1 1 1 1 0 1 1 3 4 4 3 3 8 6 3 3 5 7 6 7 9 11 11 12 5 4 0 1 2 2 3 2 1 1 1 2 5 1 1 2 5 2 1 2 6 3 4 5 3 1 1 5 2 2 3 3 3 4 2 3 4 3 3 3 3 2 1 2 0 1 0 1
9 9 6 5 6 6 6 5 5 4 4 2 1 1 1 1 1 2 1 1 1 3 0 3 4 4 2 8 9 4 5 5 4 5 5 8 10 10 9 8 7 5 2 4 1 1 1 1 2 4 3 5 0 2 1 5 1 3 3 5 1 1 3 2 2 3 1 2 2 6 4 3 5 4 4 2 2 2 3 2 2 1 2 2 2 0 0
7 7 6 5 5 5 6 6 6 6 5 3 1 1 1 1 1 1 1 1 1 3 3 4 6 8 5 8 5 3 5 5 5 6 6 7 9 9 10 10 7 4 2 1 3 1 1 2 5 2 1 3 2 5 1 2 1 2 5 7 2 0 4 1 2 1 4 6 5 2 4 6 9 6 3 1 2 3 4 4 3 3 2 2 1 1 2
6 5 5 5 5 6 6 7 7 4 4 3 1 1 2 1 2 2 2 1 0 2 3 5 5 4 2 6 6 8 5 4 5 6 6 6 7 9 10 10 8 7 3 1 1 1 2 4 2 3 2 3 1 4 1 3 3 6 8 4 3 2 3 1 1 2 6 6 5 1 1 4 7 5 5 3 3 4 4 3 3 3 4 3 2 1 1
5 5 5 4 4 6 6 6 6 5 4 1 0 0 1 0 1 2 1 1 1 1 2 3 5 4 3 3 5 5 5 3 5 7 7 6 6 7 9 8 7 7 4 4 5 4 4 2 2 2 2 1 1 1 1 1 2 6 5 4 5 1 1 2 3 1 4 5 5 4 4 8 9 7 7 4 3 4 4 5 6 5 3 3 2 2 2
5 4 4 4 5 6 7 7 6 5 5 2 1 1 1 0 0 2 3 2 1 1 1 1 5 5 5 3 2 7 10 10 5 4 7 8 7 8 6 6 3 7 6 2 1 5 2 2 1 2 1 3 3 2 3 1 3 3 5 3 2 1 2 3 4 5 5 6 7 6 4 7 7 3 3 4 5 5 3 2 1 2 2 3 2 3 3
5 5 5 5 4 4 5 5 4 3 2 1 1 1 0 0 1 2 4 2 1 2 1 3 3 2 2 3 2 3 6 9 3 2 2 3 3 4 3 8 5 8 5 5 3 1 3 4 3 3 3 3 4 1 2 4 8 8 5 10 9 6 3 4 5 6 4 3 3 8 6 5 3 7 6 8 8 6 3 2 2 2 3 3 2 1 1
5 5 4 4 5 5 6 6 4 1 1 3 8 8 9 11 12 10 2 1 1 1 1 1 2 1 1 5 6 5 3 4 4 5 5 1 2 2 3 3 2 1 3 3 2 3 4 5 2 3 6 0 2 1 3 6 6 4 7 9 8 8 9 5 4 5 7 5 1 1 5 7 5 7 8 6 4 5 5 5 4 4 4 3 2 1 1
5 5 4 4 5 5 6 6 6 3 2 1 2 2 2 4 3 3 2 1 0 0 2 0 3 2 4 3 5 5 4 4 4 4 4 3 0 0 2 1 2 3 3 7 4 1 1 1 4 4 1 2 2 1 5 5 6 8 8 8 9 9 7 7 6 8 8 7 3 5 7 9 9 7 4 4 3 2 3 5 5 5 2 2 2 1 1
6 5 4 4 4 5 5 3 1 0 1 1 2 4 3 5 2 1 3 0 1 1 1 1 0 3 4 3 2 6 3 2 4 3 1 5 2 1 1 2 0 2 4 2 1 2 4 5 5 2 6 1 2 3 3 5 7 7 7 8 8 7 6 8 8 6 6 4 5 6 6 3 2 4 6 5 4 4 6 4 3 5 4 3 3 3 3
4 3 2 2 4 4 1 0 0 0 1 1 1 3 0 3 4 3 2 2 1 1 0 1 1 2 1 4 4 3 3 3 2 3 2 2 5 1 0 2 1 5 1 3 4 2 3 2 3 5 2 2 6 4 7 8 9 9 10 11 10 8 7 7 8 7 6 5 7 7 6 5 2 5 5 2 3 3 3 5 2 1 2 4 5 4 2
4 3 3 2 1 0 1 0 0 1 1 2 1 3 1 1 0 0 1 1 1 0 0 1 2 3 1 3 1 4 4 5 4 3 3 3 2 2 1 1 3 1 1 1 0 3 5 1 2 3 3 5 6 7 9 10 9 10 10 9 9 6 6 7 7 6 6 7 7 7 6 5 6 4 3 4 3 3 3 4 6 6 4 5 4 4 6
1 2 1 1 0 0 0 1 1 3 4 2 3 0 1 0 1 0 0 1 0 1 0 1 4 1 1 0 4 3 3 4 2 3 4 1 2 3 0 1 1 1 2 2 5 4 3 2 3 5 6 6 7 7 9 8 8 8 8 8 8 7 7 7 6 4 5 7 6 6 5 3 4 4 3 5 3 6 8 6 5 4 3 3 4 4 2
3 1 2 2 1 2 2 2 3 4 1 1 0 0 1 0 1 0 1 0 0 1 0 2 3 1 1 1 6 3 3 1 4 2 1 2 2 4 1 2 1 1 1 1 3 1 2 2 1 2 6 4 4 7 4 6 7 7 7 8 7 8 7 8 7 8 9 9 9 8 6 6 6 7 5 6 5 5 3 2 3 4 4 3 3 3 2
2 1 0 0 1 1 2 3 5 3 1 1 1 3 0 1 2 0 0 1 2 1 1 2 2 3 4 5 1 5 1 2 1 3 2 6 1 1 1 1 0 1 1 0 4 3 1 2 1 1 5 3 6 3 3 3 4 5 4 6 6 7 7 9 9 8 10 11 10 10 7 6 7 7 6 6 6 7 5 4 3 3 3 3 3 4 5
1 0 0 1 1 0 1 2 2 1 1 1 2 2 1 2 0 0 0 0 1 4 2 2 0 1 2 1 2 5 4 0 1 1 1 3 3 1 1 0 0 1 1 3 3 1 1 1 2 2 5 1 1 3 4 4 4 6 5 6 7 8 10 10 11 10 9 10 9 8 8 9 9 9 8 8 8 8 7 4 4 4 4 3 4 4 3
1 2 2 1 0 0 2 3 2 1 1 1 2 1 1 0 1 1 1 2 3 1 3 2 2 2 2 7 5 3 3 1 0 1 0 2 1 1 1 0 0 1 2 2 2 1 1 1 2 3 3 3 2 2 4 6 6 8 10 10 9 9 11 12 13 10 10 11 10 9 8 7 8 9 10 9 9 8 5 4 4 4 5 3 1 2 3
6 3 2 0 1 1 2 1 2 1 1 1 2 2 2 2 2 2 2 2 1 1 2 1 2 1 1 1 1 2 2 0 0 1 0 2 2 0 0 1 1 1 3 1 1 1 1 3 2 4 2 6 9 8 6 4 5 6 8 7 7 9 10 11 10 10 9 11 11 10 8 7 9 10 8 7 5 5 3 3 6 5 3 3 3 3 2
0 1 0 1 1 1 0 1 0 1 0 0 1 2 1 1 3 0 0 3 1 2 2 2 1 1 2 0 1 1 1 1 1 1 1 1 0 1 1 1 3 3 0 1 1 2 4 3 5 4 4 3 5 8 8 8 8 7 9 11 9 8 8 7 4 2 5 6 5 5 3 3 4 3 5 6 9 9 6 5 4 5 5 5 4 3 2
1 1 1 1 0 1 2 2 2 1 2 2 2 2 3 3 2 3 3 3 2 2 2 0 1 1 3 2 0 0 0 1 1 1 1 0 1 1 1 2 2 2 1 3 2 2 1 4 2 3 3 4 6 5 6 9 8 8 9 11 11 10 9 10 11 10 6 4 6 5 4 3 4 4 4 6 5 7 9 7 6 6 5 5 4 3 3
1 2 1 2 2 2 1 2 0 1 2 2 3 6 4 5 4 3 5 1 1 3 4 4 1 1 2 1 1 1 0 1 0 1 0 1 1 2 2 1 1 1 1 1 2 3 5 5 3 3 2 3 6 8 5 5 4 6 8 9 11 11 9 7 9 9 10 8 1 4 3 1 2 1 2 2 3 4 6 5 3 5 6 6 5 5 5
1 0 1 2 1 2 1 1 4 5 4 3 4 5 6 5 6 4 2 1 3 5 3 1 3 3 2 1 0 1 0 0 0 1 1 1 2 1 1 1 1 2 2 2 3 3 4 3 3 4 3 5 5 5 4 4 2 3 6 7 9 10 8 7 7 9 11 13 3 4 4 3 2 4 4 6 7 6 6 6 6 4 3 3 3 4 5
1 1 1 1 2 1 3 5 2 3 3 4 3 4 5 1 2 5 3 3 4 1 2 1 1 1 1 1 1 2 1 1 1 2 1 1 1 1 1 1 2 2 2 2 4 4 3 2 4 5 5 4 5 5 6 8 9 8 7 7 7 9 10 8 6 6 8 13 11 2 4 4 4 4 5 4 4 4 4 4 4 4 4 3 2 3 4
2 2 2 2 2 2 3 3 1 3 5 2 2 1 1 2 5 6 6 2 3 5 4 4 1 3 1 0 1 1 2 1 2 3 0 1 2 3 2 3 2 3 4 4 5 4 3 4 4 4 6 5 4 5 6 5 6 7 6 7 8 7 5 7 8 5 2 4 10 8 3 3 4 4 4 4 4 3 3 3 4 3 3 3 3 3 4
0 1 1 1 2 3 2 0 0 4 5 4 2 2 1 2 4 6 3 1 1 0 1 1 1 2 2 1 1 1 1 1 2 0 1 3 2 1 1 4 4 3 2 2 3 4 5 5 4 4 6 5 5 6 6 7 7 7 6 6 6 7 6 4 5 5 4 5 7 8 5 6 6 5 5 4 2 2 2 2 1 2 1 1 2 3 3
1 2 3 3 7 6 3 3 4 3 2 3 2 3 2 3 3 5 2 1 0 1 0 3 2 1 0 0 1 1 2 0 1 3 3 3 1 2 4 4 4 4 5 5 5 3 3 4 3 5 6 6 7 6 5 6 6 7 6 6 7 6 6 5 4 4 4 2 3 5 6 6 5 4 2 2 3 3 2 2 1 1 0 1 1 2 2
2 3 3 3 5 5 5 4 2 6 8 7 6 6 3 5 3 4 2 2 1 2 4 1 1 1 1 3 4 2 0 1 2 1 2 3 2 3 4 6 6 6 6 6 6 4 3 4 6 7 6 6 6 5 6 6 5 6 6 6 7 7 7 6 6 4 3 4 4 3 3 3 4 3 2 3 3 3 2 2 1 1 1 2 2 2 2
Wind_Direction
336 335 335 337 339 340 341 347 350 352 353 5 348 328 11 41 142 281 304 183 14 55 60 304 31 336 243 292 285 241 276 240 267 331 331 355 179 329 3 215 36 237 239 132 110 150 194 173 182 201 188 222 202 223 173 150 154 121 13 75 195 123 139 160 282 302 289 291 286 240 193 174 219 296 103 131 180 185 184 177 185 142 167 57 330 237 251
334 336 335 336 339 339 340 347 351 353 10 344 308 37 85 226 276 326 321 178 42 80 66 339 332 291 291 258 250 232 242 328 332 340 316 357 333 16 301 340 112 252 217 85 53 226 98 232 238 323 278 291 250 246 211 178 181 159 210 162 207 138 268 133 313 352 332 335 348 15 349 57 114 199 234 169 85 82 134 105 70 242 225 167 120 244 285
331 333 334 335 339 341 340 347 348 351 356 3 342 31 291 267 248 235 294 4 55 65 182 100 283 320 330 331 352 357 348 265 308 271 286 329 288 12 333 232 285 321 13 99 153 32 97 158 356 133 335 279 309 304 199 228 203 208 84 150 156 149 168 126 176 182 210 330 7 306 304 244 274 296 340 186 152 135 114 178 66 173 279 115 144 260 256
328 330 331 334 339 341 342 343 345 345 352 353 297 257 4 14 111 316 345 3 17 73 260 91 84 311 351 12 314 330 332 325 327 13 289 56 336 118 258 318 44 359 26 35 25 19 6 78 324 25 337 306 300 276 311 157 197 221 152 142 137 156 190 170 167 162 185 210 212 248 112 352 11 295 306 278 113 166 83 103 110 205 199 187 234 184 305
326 326 330 336 341 344 342 341 340 342 346 358 153 323 135 227 81 345 340 341 39 75 16 13 32 8 313 45 328 349 353 289 312 5 31 347 351 326 45 354 39 339 46 26 50 21 356 2 78 4 317 272 241 286 248 299 331 193 158 153 89 90 181 234 179 200 216 188 216 241 77 243 255 293 322 0 168 150 130 152 208 172 105 292 256 188 267
328 329 332 337 342 345 343 337 339 338 341 350 184 355 355 54 268 118 209 135 254 35 321 4 334 304 280 244 339 355 354 10 13 321 10 305 1 58 335 29 42 16 8 89 60 340 14 8 10 318 321 339 336 350 359 75 16 55 156 170 155 145 178 255 147 247 246 234 262 329 310 206 264 311 349 345 248 183 165 222 190 147 165 230 265 174 203
336 334 335 337 340 342 341 338 339 339 336 22 156 57 305 107 195 163 336 125 267 173 278 325 319 315 343 230 21 359 12 358 337 249 316 0 2 30 78 358 356 15 9 100 80 7 54 339 310 16 316 8 324 355 342 326 29 34 84 334 103 106 249 209 182 223 280 271 260 279 210 21 30 2 2 28 205 212 187 315 298 210 256 251 56 195 239
340 339 338 339 339 340 337 339 343 341 337 336 60 81 22 352 42 313 355 79 282 292 346 344 49 80 342 57 339 351 357 354 348 344 4 355 335 1 59 328 334 5 24 47 89 284 148 161 279 286 53 324 96 302 193 288 355 48 56 316 325 111 266 129 81 113 294 318 354 253 176 120 56 335 354 11 48 100 75 126 62 224 288 286 287 256 278
344 343 341 339 337 339 339 342 349 345 344 41 50 73 37 287 143 228 49 31 300 294 16 33 79 71 349 63 309 350 345 351 334 280 280 72 3 5 332 307 317 321 9 37 75 200 253 253 226 251 230 248 253 85 285 142 317 358 352 4 312 50 251 63 71 152 301 304 28 335 276 62 67 19 6 8 13 38 348 52 303 103 275 296 352 308 269
345 343 343 341 337 339 341 345 350 355 348 99 43 50 313 326 289 27 117 101 341 26 316 354 71 48 242 1 310 340 300 304 322 338 285 86 89 39 349 342 106 296 21 359 320 319 299 268 264 256 251 249 268 248 252 231 245 307 298 251 50 99 109 158 96 109 271 251 97 60 66 21 14 334 315 34 42 105 134 86 52 64 210 301 264 241 225
342 341 343 345 343 339 340 343 351 358 1 34 24 15 353 33 343 1 22 77 328 46 57 349 90 152 188 2 318 285 270 319 336 84 277 357 333 13 33 14 43 240 19 314 311 287 274 268 271 279 267 260 256 258 255 262 221 198 189 11 40 96 93 212 153 156 243 289 341 71 68 64 238 231 174 135 148 153 88 39 324 299 170 231 220 262 285
340 339 339 343 343 341 339 337 347 357 25 58 36 326 292 321 94 108 87 95 256 331 86 223 152 291 33 312 318 285 316 323 310 291 247 281 283 318 4 17 66 350 279 326 325 315 287 229 264 288 254 273 270 264 232 243 255 203 190 189 188 66 92 121 135 105 211 314 20 40 278 223 242 291 276 160 141 123 128 161 201 287 267 275 292 278 278
336 334 334 337 337 339 337 330 331 338 1 34 358 348 355 330 191 124 124 116 231 334 20 287 339 263 257 299 313 275 289 283 278 279 241 240 298 330 316 332 1 254 320 316 327 345 12 309 321 282 292 337 329 346 299 256 262 228 207 181 136 168 130 170 29 111 35 47 53 111 237 236 281 286 291 214 114 121 106 319 304 302 306 289 281 284 289
330 330 329 331 333 334 332 323 318 328 6 275 356 329 313 321 59 59 81 99 290 209 200 307 354 359 353 321 296 299 315 331 317 239 267 263 276 275 288 226 262 294 295 305 336 27 341 37 13 8 325 359 353 354 284 313 277 255 207 225 198 149 112 110 196 172 187 186 148 213 290 345 38 31 263 154 192 180 160 167 284 301 306 311 296 303 304
326 326 326 322 328 329 327 321 305 305 334 194 313 304 293 257 220 148 236 98 212 292 172 199 254 258 300 297 0 351 353 325 357 323 270 278 243 242 277 287 301 296 293 239 331 40 156 105 15 25 332 32 348 276 320 332 311 4 304 219 180 166 180 235 150 266 121 132 19 354 18 199 273 245 272 308 212 180 169 109 295 297 311 319 337 315 312
324 323 322 321 322 324 320 315 308 294 286 193 260 302 285 245 222 323 137 140 129 342 280 205 160 235 352 294 321 75 339 330 311 298 326 329 272 315 296 311 306 306 319 79 70 92 38 256 235 119 221 203 221 43 290 330 330 308 24 66 96 36 87 138 143 170 82 47 127 202 159 241 201 229 239 248 214 149 119 71 325 279 296 318 4 321 316
321 320 322 319 322 322 319 310 300 288 201 184 268 327 304 352 142 148 83 40 93 212 247 221 222 107 49 328 14 13 11 339 311 19 331 327 316 307 304 324 301 23 13 80 13 57 34 38 99 164 278 200 138 221 285 58 327 322 328 16 41 65 22 76 57 116 188 140 124 221 197 209 221 224 267 254 159 129 75 20 285 264 298 310 351 329 316
321 320 319 318 324 324 318 310 293 278 237 178 191 296 287 238 198 167 68 121 123 286 262 231 100 73 149 184 171 263 347 4 20 13 221 267 313 355 323 338 341 323 38 89 6 68 68 117 272 196 245 250 268 91 241 208 286 233 325 343 319 13 1 83 187 181 175 144 224 333 301 268 255 235 227 199 182 84 89 213 236 247 265 288 341 299 298
320 320 318 319 319 323 322 322 321 280 208 179 173 278 267 251 199 148 119 88 107 234 278 300 244 168 218 122 169 199 208 196 174 10 304 348 95 287 261 254 272 329 8 124 61 98 125 264 44 133 192 308 13 207 258 27 235 288 66 0 331 320 104 334 78 131 174 196 151 215 235 239 200 260 163 181 110 142 211 235 200 156 251 277 255 279 294
319 316 316 319 317 319 324 324 326 311 252 168 161 247 269 286 250 172 138 202 140 255 280 250 199 235 187 202 285 340 322 360 194 162 183 252 316 342 22 339 326 22 340 58 70 200 118 221 207 79 284 255 262 201 10 264 234 209 99 188 162 215 152 207 183 180 68 53 89 27 211 264 157 157 69 143 157 231 199 147 295 204 250 254 284 229 263
318 316 320 320 316 318 320 318 318 320 273 173 154 76 337 286 21 168 171 142 124 307 303 301 194 236 198 224 215 204 175 206 201 285 235 239 292 48 146 201 300 357 303 60 109 313 140 290 279 188 225 176 280 21 234 326 318 286 210 198 205 212 199 288 273 182 152 146 152 196 209 233 239 137 191 216 200 177 155 137 191 255 239 264 267 267 238
324 326 329 335 333 323 315 312 311 315 272 163 142 104 278 276 267 293 319 111 144 198 219 224 215 255 243 247 239 224 229 233 233 199 231 281 273 194 250 332 278 253 251 116 32 357 357 222 39 12 354 303 14 215 200 41 284 272 316 137 3 239 242 181 287 255 132 192 217 253 265 246 281 181 231 149 125 141 152 134 160 179 248 209 228 264 273
333 331 332 339 347 349 335 322 305 296 266 171 167 159 223 321 323 338 97 349 300 292 284 283 294 270 250 249 243 235 238 230 240 211 187 181 281 284 241 261 269 232 282 128 221 164 207 136 244 169 326 211 185 289 349 170 271 351 346 261 211 295 208 159 130 269 264 251 225 270 307 345 338 297 253 139 109 91 136 141 147 238 222 184 207 258 276
334 331 331 344 350 0 2 357 2 328 278 182 190 161 228 251 284 331 16 53 102 305 299 313 47 300 236 331 310 273 228 227 214 222 194 171 191 289 308 236 225 303 305 246 179 150 212 126 220 144 260 253 105 174 189 302 235 219 328 327 336 280 299 75 263 307 77 150 325 21 334 305 347 338 13 47 75 105 138 168 234 221 229 215 297 242 249
331 333 336 356 8 5 8 4 6 2 354 246 223 144 66 302 278 337 91 179 296 102 266 307 278 241 250 269 271 271 233 224 192 192 180 193 202 204 226 214 175 204 287 290 16 53 44 144 314 113 205 265 132 268 240 122 295 52 9 272 355 328 358 358 288 324 78 238 283 292 284 264 257 236 212 147 89 67 54 166 242 150 352 135 212 205 239
335 337 336 0 10 12 1 6 357 357 4 330 205 193 190 222 208 221 139 183 169 176 250 278 284 317 335 327 299 252 270 276 258 240 204 202 208 217 248 288 300 3 354 335 341 259 177 98 133 163 154 282 69 215 233 201 225 240 192 242 211 267 337 296 324 307 284 306 321 316 326 348 342 307 233 223 190 153 120 103 112 147 137 107 14 252 238
335 345 349 6 8 9 4 360 11 357 7 349 203 247 256 288 289 282 317 338 13 316 350 280 286 276 304 283 278 293 263 242 238 222 221 210 214 225 239 254 266 301 343 305 327 141 80 110 120 240 184 231 201 219 222 309 271 311 298 270 280 350 291 260 21 360 345 103 11 354 8 299 299 301 262 240 205 154 141 120 140 154 171 193 141 12 103
332 342 342 354 2 10 7 2 6 0 357 358 298 266 220 274 297 316 356 228 135 216 240 276 302 295 299 278 266 236 260 246 243 243 231 218 210 214 221 236 235 253 257 147 286 247 145 156 251 228 236 289 338 285 172 207 63 287 241 257 190 200 228 110 350 156 271 276 287 254 260 264 246 243 294 219 184 144 150 197 213 222 225 221 144 64 339
322 330 338 347 359 2 359 0 356 344 341 357 328 339 36 303 293 276 263 248 236 294 292 276 267 311 301 287 301 295 266 223 241 229 234 222 207 206 215 221 216 212 189 175 151 137 152 221 174 160 218 214 139 270 17 234 199 229 240 221 178 224 165 120 239 213 257 253 266 239 210 276 298 283 250 227 192 174 215 246 235 222 210 211 217 238 230
332 328 343 356 354 349 347 347 344 344 340 3 337 70 64 337 0 39 84 222 234 335 292 317 320 280 282 305 292 279 291 263 233 238 234 231 209 203 213 208 218 193 179 190 175 233 220 189 256 268 269 133 250 237 280 237 229 247 266 265 233 263 252 262 220 182 270 286 301 283 238 259 259 267 279 257 182 177 203 224 216 226 211 172 189 266 281
352 341 332 330 338 342 342 344 347 359 2 20 20 46 80 64 286 185 32 2 207 202 283 285 266 304 309 250 270 290 299 303 294 251 229 220 215 207 210 182 213 159 187 215 198 227 125 258 175 273 293 203 185 177 203 178 263 307 270 251 239 228 259 263 231 232 247 286 291 279 255 247 270 303 280 237 222 207 240 276 253 220 195 154 191 213 248
346 338 337 333 333 331 332 338 341 4 359 359 157 234 141 186 271 307 341 317 162 126 276 313 313 312 285 297 272 272 291 289 296 304 272 166 222 189 176 176 191 182 174 176 201 86 224 211 174 213 187 211 155 235 182 229 252 246 283 306 303 295 267 292 308 298 273 242 302 328 329 310 257 191 207 218 212 203 199 194 189 61 83 109 99 107 182
335 334 336 338 330 332 328 332 338 189 255 273 280 280 267 268 268 272 297 308 205 304 67 79 234 288 288 276 316 303 294 336 359 0 332 236 235 144 186 182 134 127 216 129 205 202 210 170 152 214 242 114 172 195 206 231 236 241 250 264 269 278 291 287 271 276 291 297 157 215 263 278 265 262 280 292 215 182 164 145 141 106 95 84 56 33 10
318 328 326 326 329 323 330 324 316 246 222 344 4 330 303 314 278 217 187 102 255 349 78 66 298 305 285 322 3 284 359 6 291 3 340 299 293 109 228 136 202 161 211 185 253 140 315 98 189 225 32 243 167 155 251 250 239 251 261 264 267 277 281 297 292 292 287 282 238 212 244 263 270 287 265 176 159 97 114 122 134 113 102 119 194 251 239
316 322 320 327 341 336 334 349 13 17 347 48 234 255 265 297 124 196 182 172 74 12 34 321 93 323 315 328 326 278 311 4 355 335 348 277 358 241 264 125 24 183 277 81 77 182 173 214 159 133 236 115 124 221 232 243 258 253 255 261 265 265 289 292 283 251 257 281 304 305 301 291 316 244 201 179 171 160 146 144 144 127 132 204 230 241 217
314 333 334 337 327 317 298 62 52 23 3 303 242 295 2 62 52 58 102 75 94 137 259 268 200 287 295 318 319 290 347 350 283 314 254 289 329 320 96 113 86 247 176 156 207 167 198 210 126 244 133 179 225 193 225 215 232 236 233 241 245 233 229 233 257 275 281 297 299 299 310 324 322 289 307 263 170 174 153 144 133 121 149 178 224 241 235
356 340 314 286 355 53 348 277 122 149 194 229 244 225 176 88 37 337 5 50 355 17 167 333 292 246 216 267 287 276 12 335 329 332 326 358 284 290 13 28 228 268 83 327 69 170 241 160 192 214 187 214 245 223 220 219 219 229 240 242 249 244 249 258 252 258 293 297 306 307 293 285 290 277 269 274 234 159 146 174 186 172 188 207 210 211 224
304 9 19 338 314 332 196 66 351 289 264 212 172 241 343 109 47 25 94 13 350 85 17 225 248 282 59 64 264 258 5 281 33 347 314 265 349 301 305 101 252 351 295 243 241 185 112 143 199 209 253 240 244 235 236 235 237 241 247 257 257 254 246 246 249 250 272 296 303 297 301 281 265 275 242 256 224 194 206 208 192 199 196 193 191 190 182
54 34 37 36 59 25 22 36 323 339 46 59 34 44 327 344 61 37 17 222 100 337 245 182 264 143 140 221 270 281 196 281 342 5 326 281 46 306 352 35 305 57 303 348 300 315 252 282 273 214 253 258 251 248 251 245 252 252 254 256 261 266 262 261 238 219 225 226 234 238 230 252 267 268 239 242 244 245 250 185 183 200 206 190 153 157 169
47 45 6 34 69 276 292 303 340 354 354 355 345 90 267 313 91 330 87 29 337 279 93 267 209 204 187 207 240 309 279 113 123 298 227 300 229 181 273 76 275 56 268 259 249 336 30 281 260 182 265 236 248 273 315 295 293 284 273 271 274 268 263 258 260 236 225 234 232 243 247 240 238 244 240 228 226 235 247 234 210 193 193 184 170 166 189
336 298 314 71 66 233 258 279 356 48 64 39 14 7 70 350 291 206 4 281 238 256 208 197 267 315 233 171 177 236 293 350 234 155 149 254 264 34 354 255 272 76 255 252 279 35 18 282 278 207 242 257 273 312 328 331 324 309 310 307 303 292 283 274 260 244 226 233 245 250 248 244 245 244 237 223 215 214 218 200 172 188 174 176 183 201 215
335 327 318 326 211 83 20 18 60 45 17 129 110 296 318 260 1 7 143 145 248 235 280 170 250 221 235 183 204 184 279 200 174 228 44 306 290 182 238 121 356 213 261 228 127 51 76 257 276 272 265 283 279 317 351 342 329 330 325 330 319 300 289 278 266 247 217 219 228 236 243 243 244 242 231 217 212 213 189 144 156 176 197 203 135 127 160
285 277 187 334 41 8 88 41 304 123 112 10 45 359 5 38 226 165 275 254 290 165 258 204 239 219 257 121 293 202 212 187 105 309 70 254 304 15 115 294 95 234 244 298 87 93 181 224 242 251 295 342 327 325 322 311 307 308 306 316 313 301 292 288 264 245 223 212 217 226 241 250 245 234 216 196 174 140 150 159 163 170 171 149 147 159 174
179 182 39 33 9 324 96 27 268 51 44 132 115 173 177 343 306 205 288 268 225 280 223 164 261 95 287 265 188 303 4 348 52 91 302 275 57 290 8 251 219 246 254 255 148 178 219 221 221 224 174 194 246 294 313 326 326 325 333 328 325 310 309 345 340 295 258 233 224 207 188 230 260 203 161 171 164 154 148 142 150 144 147 134 137 167 171
81 18 35 22 337 288 55 307 311 125 215 219 177 205 169 178 230 173 201 244 144 221 318 202 156 152 252 269 34 266 99 235 342 114 259 57 337 271 175 261 288 352 321 262 270 286 322 262 291 340 342 342 311 287 289 305 316 329 326 320 327 325 328 3 7 1 325 259 199 171 183 203 228 181 171 170 166 149 143 147 163 133 142 141 133 125 159
93 174 94 74 300 302 110 231 280 300 273 169 206 196 185 225 170 219 251 186 240 289 301 273 230 195 282 261 151 230 304 104 21 258 210 75 98 270 262 307 25 32 276 251 266 235 224 238 267 279 267 253 277 299 280 255 299 333 339 332 320 321 320 358 19 1 344 320 256 142 135 85 290 271 154 91 72 54 48 67 87 125 139 126 147 162 170
356 122 111 113 159 268 127 218 220 209 189 211 226 193 202 213 205 216 243 191 236 246 257 234 194 198 197 283 350 337 39 300 196 263 75 75 212 260 24 77 273 221 200 245 235 247 260 260 252 272 285 294 293 287 287 285 285 330 316 316 321 314 319 360 17 13 345 326 315 94 89 88 77 65 45 41 41 40 51 58 59 51 59 129 166 150 159
196 244 142 243 240 193 207 244 214 270 237 219 238 206 235 246 319 290 245 213 240 204 198 150 326 346 342 323 72 218 222 197 252 275 192 225 332 302 354 345 269 255 215 220 244 231 245 254 250 271 279 280 288 308 333 341 338 339 334 327 316 317 327 345 356 34 359 322 314 33 105 102 93 74 76 77 71 61 61 72 76 77 75 68 99 152 161
221 150 164 210 205 192 228 237 155 271 267 268 249 263 263 246 252 266 279 265 246 248 204 153 196 90 276 240 211 239 247 185 196 259 172 173 180 220 194 241 229 266 258 211 235 236 239 247 253 279 288 297 293 309 325 328 331 327 327 317 309 306 315 324 325 344 290 278 303 317 17 49 61 69 69 64 64 48 60 71 68 79 102 131 154 165 174
68 301 234 190 314 274 223 133 118 273 294 294 285 261 221 206 260 274 251 271 271 70 77 46 60 123 218 120 291 288 249 221 190 219 203 222 213 220 219 255 225 208 254 245 229 229 231 265 297 294 290 302 309 317 326 324 324 325 321 307 302 307 310 312 308 307 307 309 305 299 330 40 45 41 50 53 61 74 75 59 45 71 87 151 162 187 192
256 204 235 169 203 230 136 228 210 229 283 254 230 231 201 248 248 276 247 194 140 70 62 206 215 123 102 106 131 272 243 151 220 215 202 220 187 183 211 228 242 219 242 247 252 291 317 278 258 267 281 287 294 300 309 313 314 311 313 318 308 303 299 299 289 289 290 257 274 331 24 26 10 357 23 76 73 55 31 7 44 75 238 257 213 185 184
223 233 232 242 238 236 229 252 248 234 242 243 245 248 202 255 225 240 189 120 124 188 240 183 91 79 91 205 217 197 6 34 237 212 218 249 171 172 221 209 234 241 244 276 284 258 233 238 237 238 244 264 283 300 301 298 303 306 312 332 329 313 301 297 296 291 285 308 328 344 336 354 2 11 90 69 57 45 34 316 315 318 271 271 263 246 192